EW8792 Morava BG current weather conditions

sailwx.info

Wind from 076 at 1 knots gusting 2

Air temperature 19.4° C
Dewpoint 11.2° C

Last reported at 2020-Aug-04 01:10 UTC.
Time now 2020-Aug-04 01:53 UTC

Location: N 43°28' E 025°13'.
View on Google Maps.

See reports from other nearby stations

  
Tides and Currents Weather Stations Pressure Air Temp Water Temp Dewpoint Dewpoint Depression Visibility Wind Speed Wind Dir Waves Ship Positions
date/time (UTC)wind fromknots sea level pressurealtimeterstation pressurevisibilityair tempwater tempwave heightnotes
2020-Aug-04 01:10 076 1 gusting 2 19.4
2020-Aug-04 01:05 079 1 gusting 2 19.4
2020-Aug-04 00:55 113 1 gusting 2 19.4
2020-Aug-04 00:50 118 2 gusting 4 19.4
2020-Aug-04 00:45 109 3 gusting 4 19.4
2020-Aug-04 00:40 102 3 gusting 4 19.4
2020-Aug-04 00:35 109 3 gusting 3 19.4
2020-Aug-04 00:25 121 2 gusting 3 19.4
2020-Aug-04 00:20 107 3 gusting 4 20.0
2020-Aug-04 00:15 113 3 gusting 4 20.0
2020-Aug-04 00:10 123 2 gusting 4 20.0
2020-Aug-04 00:05 120 3 gusting 4 20.0
2020-Aug-04 00:00 125 3 gusting 4 20.6
2020-Aug-03 23:55 116 4 gusting 6 20.6
2020-Aug-03 23:50 108 5 gusting 6 20.6
2020-Aug-03 23:45 118 5 gusting 7 20.6
2020-Aug-03 23:40 125 5 gusting 7 20.6
2020-Aug-03 23:35 131 5 gusting 6 20.6
2020-Aug-03 23:30 129 5 gusting 7 21.1
2020-Aug-03 23:25 104 6 gusting 9 21.1
2020-Aug-03 23:20 103 6 gusting 9 21.7
2020-Aug-03 23:15 109 6 gusting 10 21.7
2020-Aug-03 23:10 098 6 gusting 10 21.7
2020-Aug-03 23:05 088 6 gusting 8 22.2
2020-Aug-03 23:00 096 6 gusting 8 22.2
2020-Aug-03 22:55 127 5 gusting 8 22.2
2020-Aug-03 22:50 134 5 gusting 6 22.2
2020-Aug-03 22:45 123 6 gusting 7 22.2
2020-Aug-03 22:40 121 6 gusting 7 22.2
2020-Aug-03 22:35 119 6 gusting 7 22.2
2020-Aug-03 22:25 100 6 gusting 6 22.2
2020-Aug-03 22:20 107 5 gusting 6 22.2
2020-Aug-03 22:15 115 5 gusting 6 22.2
2020-Aug-03 22:10 120 5 gusting 6 22.2
2020-Aug-03 22:05 114 5 gusting 6 22.2
2020-Aug-03 22:00 123 5 gusting 8 22.2
2020-Aug-03 21:55 129 6 gusting 8 22.8
2020-Aug-03 21:50 116 5 gusting 7 22.8
2020-Aug-03 21:45 096 5 gusting 7 22.8
2020-Aug-03 21:40 099 5 gusting 6 22.8
2020-Aug-03 21:35 106 5 gusting 6 22.8
2020-Aug-03 21:30 107 5 gusting 6 22.8
2020-Aug-03 21:25 117 6 gusting 10 22.8
2020-Aug-03 21:20 118 6 gusting 10 23.3
2020-Aug-03 21:10 118 6 gusting 9 23.3
2020-Aug-03 21:05 116 6 gusting 9 23.3
2020-Aug-03 20:55 118 6 gusting 7 23.9
2020-Aug-03 20:50 114 6 gusting 7 23.9
2020-Aug-03 20:45 116 6 gusting 7 23.9
2020-Aug-03 20:40 132 6 gusting 8 23.9
2020-Aug-03 20:35 118 6 gusting 9 23.9
2020-Aug-03 20:30 104 6 gusting 9 24.4
2020-Aug-03 20:25 124 6 gusting 9 24.4
2020-Aug-03 20:20 122 6 gusting 7 24.4
2020-Aug-03 20:15 105 6 gusting 12 24.4
2020-Aug-03 20:10 111 6 gusting 12 24.4
2020-Aug-03 20:05 122 6 gusting 7 24.4
2020-Aug-03 20:00 133 5 gusting 6 24.4
2020-Aug-03 19:55 125 5 gusting 6 24.4
2020-Aug-03 19:50 109 5 gusting 6 24.4
2020-Aug-03 19:40 097 6 gusting 7 25.0
2020-Aug-03 19:35 099 6 gusting 7 25.0
2020-Aug-03 19:30 116 6 gusting 7 25.0
2020-Aug-03 19:25 114 6 gusting 7 25.0
2020-Aug-03 19:20 115 6 gusting 7 25.0
2020-Aug-03 19:10 112 6 gusting 7 25.0
2020-Aug-03 19:05 102 6 gusting 7 25.0
2020-Aug-03 19:00 096 6 gusting 7 25.0
2020-Aug-03 18:55 108 6 gusting 6 25.0
2020-Aug-03 18:50 114 5 gusting 6 25.0
2020-Aug-03 18:40 099 5 gusting 6 26.1
2020-Aug-03 18:35 101 4 gusting 6 26.1
2020-Aug-03 18:30 116 4 gusting 5 26.1
2020-Aug-03 18:25 112 4 gusting 6 26.1
2020-Aug-03 18:20 099 4 gusting 6 26.1
2020-Aug-03 18:15 118 4 gusting 5 26.1
2020-Aug-03 18:10 125 3 gusting 5 26.1
2020-Aug-03 18:05 115 3 gusting 4 26.1
2020-Aug-03 18:00 110 2 gusting 3 26.1
2020-Aug-03 17:55 105 2 gusting 3 26.7
2020-Aug-03 17:50 118 3 gusting 4 27.2
2020-Aug-03 17:45 138 3 gusting 5 27.2
2020-Aug-03 17:40 135 3 gusting 5 27.2
2020-Aug-03 17:35 117 2 gusting 3 27.8
2020-Aug-03 17:30 117 2 gusting 3 28.3
2020-Aug-03 17:25 115 2 gusting 3 28.3
2020-Aug-03 17:20 106 2 gusting 3 28.9
2020-Aug-03 17:15 112 2 gusting 3 28.9
2020-Aug-03 17:10 114 2 gusting 3 29.4
2020-Aug-03 17:05 104 2 gusting 3 29.4
2020-Aug-03 17:00 101 2 gusting 3 30.0
2020-Aug-03 16:55 104 2 gusting 3 30.0
2020-Aug-03 16:50 110 2 gusting 3 30.6
2020-Aug-03 16:45 101 3 gusting 4 30.6
2020-Aug-03 16:40 105 3 gusting 4 30.6
2020-Aug-03 16:35 120 4 gusting 6 30.6
2020-Aug-03 16:30 114 3 gusting 6 31.1
2020-Aug-03 16:25 113 3 gusting 4 31.1
2020-Aug-03 16:20 118 3 gusting 4 31.7
2020-Aug-03 16:15 106 3 gusting 4 31.7
2020-Aug-03 16:10 089 3 gusting 4 31.7
2020-Aug-03 16:05 104 2 gusting 3 32.2
2020-Aug-03 16:00 095 2 gusting 4 32.8
2020-Aug-03 15:55 092 3 gusting 4 33.3
2020-Aug-03 15:50 106 2 gusting 3 33.9
2020-Aug-03 15:45 109 1 gusting 3 33.9
2020-Aug-03 15:40 096 1 gusting 3 33.9
2020-Aug-03 15:35 076 2 gusting 3 33.3
2020-Aug-03 15:25 101 3 gusting 6 33.9
2020-Aug-03 15:20 118 3 gusting 6 33.9
2020-Aug-03 15:15 149 2 gusting 4 33.9
2020-Aug-03 15:10 114 2 gusting 6 33.9
2020-Aug-03 15:05 102 4 gusting 6 33.3
2020-Aug-03 15:00 104 5 gusting 8 33.3
2020-Aug-03 14:55 115 4 gusting 8 33.9
2020-Aug-03 14:50 136 3 gusting 8 34.4
2020-Aug-03 14:45 105 3 gusting 5 33.9
2020-Aug-03 14:40 115 3 gusting 6 33.9
2020-Aug-03 14:35 129 3 gusting 6 33.9
2020-Aug-03 14:30 114 3 gusting 5 34.4
2020-Aug-03 14:25 119 3 gusting 5 33.9
2020-Aug-03 14:20 115 4 gusting 6 33.3
2020-Aug-03 14:15 111 5 gusting 6 33.3
2020-Aug-03 14:10 097 5 gusting 7 33.3
2020-Aug-03 14:05 080 4 gusting 7 34.4
2020-Aug-03 14:00 086 3 gusting 4 35.0
2020-Aug-03 13:55 091 3 gusting 6 34.4
2020-Aug-03 13:50 073 3 gusting 6 34.4
2020-Aug-03 13:45 090 3 gusting 6 34.4
2020-Aug-03 13:40 060 3 gusting 6 34.4
2020-Aug-03 13:35 018 2 gusting 4 35.0
2020-Aug-03 13:30 074 3 gusting 6 34.4
2020-Aug-03 13:25 098 4 gusting 6 33.9
2020-Aug-03 13:20 103 4 gusting 6 33.9
2020-Aug-03 13:15 134 3 gusting 6 34.4
2020-Aug-03 13:10 118 3 gusting 6 33.9
2020-Aug-03 13:05 082 3 gusting 6 33.9
2020-Aug-03 13:00 078 2 gusting 6 34.4
2020-Aug-03 12:55 105 3 gusting 6 33.9
2020-Aug-03 12:50 109 5 gusting 8 33.9
2020-Aug-03 12:45 118 4 gusting 8 34.4
2020-Aug-03 12:40 114 4 gusting 6 33.9
2020-Aug-03 12:35 100 4 gusting 6 33.9
2020-Aug-03 12:30 122 5 gusting 6 33.3
2020-Aug-03 12:25 125 4 gusting 6 33.3
2020-Aug-03 12:15 097 4 gusting 6 33.3
2020-Aug-03 12:10 076 5 gusting 8 32.8
2020-Aug-03 12:05 086 5 gusting 8 33.3
2020-Aug-03 11:55 141 5 gusting 9 33.3
2020-Aug-03 11:50 146 5 gusting 9 33.3
2020-Aug-03 11:45 124 4 gusting 7 33.3
2020-Aug-03 11:40 128 6 gusting 9 33.3
2020-Aug-03 11:35 114 4 gusting 9 33.9
2020-Aug-03 11:30 092 3 gusting 4 33.9
2020-Aug-03 11:25 129 4 gusting 7 33.3
2020-Aug-03 11:20 138 4 gusting 7 33.3
2020-Aug-03 11:15 101 4 gusting 6 33.3
2020-Aug-03 11:10 113 5 gusting 6 32.8
2020-Aug-03 11:05 174 5 gusting 8 32.8
2020-Aug-03 11:00 137 4 gusting 8 33.3
2020-Aug-03 10:55 123 3 gusting 7 33.3
2020-Aug-03 10:50 133 5 gusting 7 32.8
2020-Aug-03 10:45 128 6 gusting 7 32.8
2020-Aug-03 10:40 117 4 gusting 6 32.8
2020-Aug-03 10:35 104 4 gusting 6 32.8
2020-Aug-03 10:30 099 5 gusting 6 31.7
2020-Aug-03 10:25 111 6 gusting 10 31.7
2020-Aug-03 10:20 114 6 gusting 10 31.7
2020-Aug-03 10:15 106 6 gusting 9 31.7
2020-Aug-03 10:10 121 6 gusting 9 31.7
2020-Aug-03 10:05 131 6 gusting 9 31.7
2020-Aug-03 10:00 121 5 gusting 8 31.7
2020-Aug-03 09:55 129 5 gusting 8 32.2
2020-Aug-03 09:50 127 6 gusting 8 31.7
2020-Aug-03 09:45 115 6 gusting 9 31.1
2020-Aug-03 09:40 102 6 gusting 9 31.1
2020-Aug-03 09:35 091 6 gusting 9 31.1
2020-Aug-03 09:30 106 6 gusting 9 30.6
2020-Aug-03 09:25 101 8 gusting 10 30.6
2020-Aug-03 09:20 096 8 gusting 10 30.6
2020-Aug-03 09:15 112 7 gusting 12 31.1
2020-Aug-03 09:10 118 8 gusting 12 31.1
2020-Aug-03 09:05 142 6 gusting 9 31.1
2020-Aug-03 09:00 158 6 gusting 10 31.1
2020-Aug-03 08:55 152 7 gusting 10 30.6
2020-Aug-03 08:50 119 8 gusting 13 30.6
2020-Aug-03 08:45 105 9 gusting 13 30.6
2020-Aug-03 08:40 122 7 gusting 12 30.6
2020-Aug-03 08:35 141 6 gusting 11 30.6
2020-Aug-03 08:30 142 6 gusting 11 30.6
2020-Aug-03 08:25 140 7 gusting 10 30.6
2020-Aug-03 08:20 131 6 gusting 10 30.6
2020-Aug-03 08:15 120 7 gusting 14 30.6
2020-Aug-03 08:10 130 7 gusting 14 30.0
2020-Aug-03 08:05 153 7 gusting 13 30.0
2020-Aug-03 08:00 149 7 gusting 13 29.4
2020-Aug-03 07:55 128 7 gusting 9 29.4
2020-Aug-03 07:50 127 7 gusting 9 29.4
2020-Aug-03 07:45 129 7 gusting 11 29.4
2020-Aug-03 07:40 140 6 gusting 11 29.4
2020-Aug-03 07:35 149 6 gusting 9 29.4
2020-Aug-03 07:25 098 6 gusting 8 28.9
2020-Aug-03 07:20 118 6 gusting 8 28.9
2020-Aug-03 07:15 137 6 gusting 10 28.9
2020-Aug-03 07:10 134 5 gusting 10 28.9
2020-Aug-03 07:05 141 6 gusting 6 28.9
2020-Aug-03 07:00 135 6 gusting 9 28.3
2020-Aug-03 06:55 134 5 gusting 9 28.3
2020-Aug-03 06:50 122 6 gusting 8 28.3
2020-Aug-03 06:45 119 6 gusting 8 28.3
2020-Aug-03 06:40 120 6 gusting 8 27.8
2020-Aug-03 06:35 117 5 gusting 8 28.3
2020-Aug-03 06:30 118 5 gusting 6 28.3
2020-Aug-03 06:25 139 5 gusting 6 27.8
2020-Aug-03 06:20 140 5 gusting 7 27.8
2020-Aug-03 06:15 129 6 gusting 7 27.8
2020-Aug-03 06:10 122 5 gusting 7 27.2
2020-Aug-03 06:05 117 5 gusting 7 27.2
2020-Aug-03 06:00 129 6 gusting 7 26.7
2020-Aug-03 05:50 138 5 gusting 6 26.7
2020-Aug-03 05:45 168 4 gusting 6 26.1
2020-Aug-03 05:40 138 5 gusting 9 26.1
2020-Aug-03 05:35 117 6 gusting 9 26.1
2020-Aug-03 05:30 126 6 gusting 7 25.0
2020-Aug-03 05:25 128 6 gusting 9 25.0
2020-Aug-03 05:20 119 6 gusting 11 25.0
2020-Aug-03 05:15 120 6 gusting 11 25.0
2020-Aug-03 05:10 117 5 gusting 6 25.0
2020-Aug-03 05:05 126 4 gusting 6 25.0
2020-Aug-03 05:00 143 3 gusting 5 25.0
2020-Aug-03 04:55 129 3 gusting 6 25.0
2020-Aug-03 04:50 127 3 gusting 6 24.4
2020-Aug-03 04:45 134 3 gusting 4 24.4
2020-Aug-03 04:40 131 3 gusting 4 23.9
2020-Aug-03 04:35 134 3 gusting 4 23.9
2020-Aug-03 04:30 135 3 gusting 4 23.3
2020-Aug-03 04:25 126 3 gusting 4 23.3
2020-Aug-03 04:20 126 3 gusting 6 22.2
2020-Aug-03 04:15 109 3 gusting 6 22.2
2020-Aug-03 04:10 110 2 gusting 4 21.7
2020-Aug-03 04:05 112 2 gusting 4 21.7
2020-Aug-03 04:00 098 1 gusting 1 22.2
2020-Aug-03 03:55 100 0 gusting 1 22.8
2020-Aug-03 03:50 118 22.8
2020-Aug-03 03:45 046 21.1
2020-Aug-03 03:40 001 20.6
2020-Aug-03 03:35 010 0 gusting 1 19.4
2020-Aug-03 03:30 343 0 gusting 1 19.4
2020-Aug-03 03:25 351 0 gusting 1 19.4
2020-Aug-03 03:20 068 1 gusting 2 19.4
2020-Aug-03 03:15 090 1 gusting 3 19.4
2020-Aug-03 03:10 090 1 gusting 3 19.4
2020-Aug-03 03:05 100 1 gusting 1 19.4
2020-Aug-03 02:55 100 0 gusting 1 19.4
2020-Aug-03 02:50 127 1 gusting 2 20.0
2020-Aug-03 02:40 096 1 gusting 1 20.0
2020-Aug-03 02:35 123 1 gusting 3 20.0
2020-Aug-03 02:30 118 2 gusting 3 20.0
2020-Aug-03 02:25 128 1 gusting 2 20.0
2020-Aug-03 02:15 131 2 gusting 3 20.6
2020-Aug-03 02:10 113 2 gusting 3 20.6
2020-Aug-03 02:05 099 2 gusting 3 20.6
2020-Aug-03 02:00 108 2 gusting 3 20.6
2020-Aug-03 01:55 110 2 gusting 3 21.1
2020-Aug-03 01:50 116 3 gusting 4 21.1
2020-Aug-03 01:45 125 4 gusting 6 21.1
2020-Aug-03 01:40 137 4 gusting 6 21.1
2020-Aug-03 01:35 117 5 gusting 7 21.1
2020-Aug-03 01:30 103 5 gusting 7 21.1
2020-Aug-03 01:25 109 4 gusting 6 21.1
2020-Aug-03 01:20 128 4 gusting 5 21.1
2020-Aug-03 01:15 128 4 gusting 5 21.1
2020-Aug-03 01:10 135 3 gusting 5 21.1
2020-Aug-03 01:05 143 3 gusting 4 20.6
2020-Aug-03 01:00 126 3 gusting 5 20.6
2020-Aug-03 00:55 104 3 gusting 5 20.6
2020-Aug-03 00:50 107 3 gusting 4 20.6
2020-Aug-03 00:45 106 2 gusting 4 20.6
2020-Aug-03 00:40 112 1 gusting 3 20.6
2020-Aug-03 00:35 093 0 gusting 1 20.0
2020-Aug-03 00:30 026 0 gusting 1 20.6
2020-Aug-03 00:25 016 1 gusting 1 20.6
2020-Aug-03 00:20 061 1 gusting 2 20.6
2020-Aug-03 00:10 140 0 gusting 2 20.6
2020-Aug-03 00:05 122 1 gusting 2 21.1
2020-Aug-03 00:00 098 2 gusting 4 21.1
2020-Aug-02 23:55 097 2 gusting 4 21.1
2020-Aug-02 23:50 093 1 gusting 2 21.1
2020-Aug-02 23:45 091 1 gusting 2 21.1
2020-Aug-02 23:40 102 2 gusting 3 21.1
2020-Aug-02 23:35 096 3 gusting 4 21.1
2020-Aug-02 23:30 096 3 gusting 4 21.1
2020-Aug-02 23:25 107 2 gusting 4 21.1
2020-Aug-02 23:20 114 2 gusting 4 21.1
2020-Aug-02 23:15 132 2 gusting 3 21.1
2020-Aug-02 23:10 121 2 gusting 3 21.7
2020-Aug-02 23:05 111 1 gusting 1 21.7
2020-Aug-02 23:00 132 2 gusting 3 21.7
2020-Aug-02 22:55 115 2 gusting 3 21.7
2020-Aug-02 22:50 118 2 gusting 3 21.7
2020-Aug-02 22:45 123 2 gusting 3 21.7
2020-Aug-02 22:40 107 2 gusting 3 22.2
2020-Aug-02 22:35 102 2 gusting 3 22.2
2020-Aug-02 22:30 112 2 gusting 3 22.2
2020-Aug-02 22:25 117 2 gusting 3 22.2
2020-Aug-02 22:20 119 2 gusting 3 22.2
2020-Aug-02 22:15 134 2 gusting 3 22.2
2020-Aug-02 22:10 130 2 gusting 3 22.2
2020-Aug-02 22:05 129 2 gusting 3 22.2
2020-Aug-02 22:00 136 1 gusting 3 22.2
2020-Aug-02 21:55 126 1 gusting 2 22.2
2020-Aug-02 21:50 121 2 gusting 4 22.8
2020-Aug-02 21:45 090 4 gusting 6 22.8
2020-Aug-02 21:40 090 4 gusting 6 22.8
2020-Aug-02 21:35 132 2 gusting 5 22.2
2020-Aug-02 21:30 130 2 gusting 3 22.8
2020-Aug-02 21:25 111 2 gusting 2 22.8
2020-Aug-02 21:20 133 1 gusting 2 22.8
2020-Aug-02 21:15 117 2 gusting 3 23.3
2020-Aug-02 21:10 102 3 gusting 4 23.3
2020-Aug-02 21:05 103 3 gusting 4 23.3
2020-Aug-02 21:00 105 3 gusting 4 23.9
2020-Aug-02 20:55 110 3 gusting 5 23.9
2020-Aug-02 20:50 099 4 gusting 5 23.9
2020-Aug-02 20:45 098 5 gusting 6 24.4
2020-Aug-02 20:40 106 5 gusting 6 24.4
2020-Aug-02 20:35 104 4 gusting 5 24.4
2020-Aug-02 20:25 120 4 gusting 6 24.4
2020-Aug-02 20:20 105 4 gusting 5 24.4
2020-Aug-02 20:15 111 4 gusting 5 24.4
2020-Aug-02 20:10 123 3 gusting 5 24.4
2020-Aug-02 20:05 118 4 gusting 6 24.4
2020-Aug-02 20:00 118 4 gusting 6 24.4
2020-Aug-02 19:55 118 3 gusting 4 24.4
2020-Aug-02 19:50 105 3 gusting 4 24.4
2020-Aug-02 19:45 103 3 gusting 6 25.0
2020-Aug-02 19:40 100 4 gusting 6 25.0
2020-Aug-02 19:35 097 4 gusting 6 25.0
2020-Aug-02 19:25 111 3 gusting 5 25.0
2020-Aug-02 19:20 109 4 gusting 6 25.0
2020-Aug-02 19:15 114 4 gusting 6 25.0
2020-Aug-02 19:10 117 3 gusting 6 25.0
2020-Aug-02 19:05 105 3 gusting 5 25.0
2020-Aug-02 19:00 102 3 gusting 5 25.0
2020-Aug-02 18:55 097 3 gusting 4 25.0
2020-Aug-02 18:50 105 3 gusting 4 25.0
2020-Aug-02 18:45 111 4 gusting 5 25.0
2020-Aug-02 18:40 098 4 gusting 5 25.0
2020-Aug-02 18:35 111 4 gusting 6 25.0
2020-Aug-02 18:30 104 4 gusting 6 26.1
2020-Aug-02 18:25 082 4 gusting 6 26.1
2020-Aug-02 18:15 102 4 gusting 6 26.1
2020-Aug-02 18:10 115 3 gusting 6 26.1
2020-Aug-02 18:05 111 3 gusting 4 26.1
2020-Aug-02 18:00 121 3 gusting 6 26.1
2020-Aug-02 17:55 120 3 gusting 6 26.7
2020-Aug-02 17:45 094 4 gusting 6 27.2
2020-Aug-02 17:40 104 4 gusting 6 27.2
2020-Aug-02 17:35 131 4 gusting 5 27.2
2020-Aug-02 17:30 147 3 gusting 3 27.8
2020-Aug-02 17:25 080 3 gusting 5 27.8
2020-Aug-02 17:20 086 3 gusting 5 27.8
2020-Aug-02 17:15 096 4 gusting 6 27.8
2020-Aug-02 17:10 087 5 gusting 6 28.3
2020-Aug-02 17:05 087 5 gusting 6 28.3
2020-Aug-02 17:00 089 4 gusting 6 28.3
2020-Aug-02 16:50 101 4 gusting 6 28.9
2020-Aug-02 16:45 106 4 gusting 8 28.9
2020-Aug-02 16:40 109 5 gusting 8 28.9
2020-Aug-02 16:35 086 5 gusting 8 28.9
2020-Aug-02 16:30 070 5 gusting 6 29.4
2020-Aug-02 16:25 086 5 gusting 9 29.4
2020-Aug-02 16:20 082 6 gusting 9 29.4
2020-Aug-02 16:15 073 5 gusting 8 30.0
2020-Aug-02 16:10 105 5 gusting 6 30.0
2020-Aug-02 16:05 118 5 gusting 7 30.0
2020-Aug-02 16:00 114 5 gusting 7 30.6
2020-Aug-02 15:55 108 5 gusting 7 30.6
2020-Aug-02 15:50 105 5 gusting 7 31.1
2020-Aug-02 15:45 097 6 gusting 8 31.1
2020-Aug-02 15:40 099 5 gusting 8 31.1
2020-Aug-02 15:35 086 4 gusting 7 31.7
2020-Aug-02 15:25 011 3 gusting 5 31.7
2020-Aug-02 15:20 098 2 gusting 5 31.7
2020-Aug-02 15:15 085 3 gusting 4 31.1
2020-Aug-02 15:10 069 2 gusting 4 30.0
2020-Aug-02 15:05 100 2 gusting 3 29.4
2020-Aug-02 14:55 111 3 gusting 6 29.4
2020-Aug-02 14:50 116 4 gusting 6 30.0
2020-Aug-02 14:45 106 5 gusting 8 30.6
2020-Aug-02 14:40 117 5 gusting 9 31.1
2020-Aug-02 14:35 114 5 gusting 9 30.6
2020-Aug-02 14:30 097 5 gusting 9 30.6
2020-Aug-02 14:25 111 5 gusting 6 30.0
2020-Aug-02 14:20 102 5 gusting 7 30.6
2020-Aug-02 14:15 079 4 gusting 7 31.1
2020-Aug-02 14:10 084 4 gusting 8 31.7
2020-Aug-02 14:05 114 3 gusting 8 32.2
2020-Aug-02 14:00 126 2 gusting 5 32.2
2020-Aug-02 13:55 056 2 gusting 3 31.7
2020-Aug-02 13:50 071 3 gusting 6 31.7
2020-Aug-02 13:45 119 5 gusting 7 31.1
2020-Aug-02 13:40 122 4 gusting 7 30.6
2020-Aug-02 13:35 101 5 gusting 8 30.0
2020-Aug-02 13:30 122 6 gusting 8 29.4
2020-Aug-02 13:25 116 5 gusting 8 30.6
2020-Aug-02 13:20 104 5 gusting 8 30.6
2020-Aug-02 13:15 105 4 gusting 6 30.6
2020-Aug-02 13:10 109 4 gusting 6 30.6
2020-Aug-02 13:05 111 4 gusting 6 31.1
2020-Aug-02 13:00 070 4 gusting 6 32.2
2020-Aug-02 12:55 075 3 gusting 5 31.7
2020-Aug-02 12:50 124 3 gusting 5 31.7
2020-Aug-02 12:45 106 3 gusting 5 32.2
2020-Aug-02 12:40 095 3 gusting 6 31.7
2020-Aug-02 12:35 127 5 gusting 9 31.7
2020-Aug-02 12:30 126 5 gusting 9 31.7
2020-Aug-02 12:25 119 4 gusting 9 31.7
2020-Aug-02 12:20 105 5 gusting 9 31.7
2020-Aug-02 12:15 093 4 gusting 9 31.1
2020-Aug-02 12:10 112 3 gusting 8 31.7
2020-Aug-02 12:05 106 3 gusting 5 31.1
2020-Aug-02 12:00 076 4 gusting 6 31.1
2020-Aug-02 11:55 084 4 gusting 7 31.7
2020-Aug-02 11:50 113 4 gusting 7 31.7
2020-Aug-02 11:45 109 4 gusting 7 30.6
2020-Aug-02 11:40 102 5 gusting 8 30.6
2020-Aug-02 11:35 093 6 gusting 9 30.6
2020-Aug-02 11:30 095 6 gusting 9 30.6
2020-Aug-02 11:25 107 4 gusting 6 31.1
2020-Aug-02 11:20 125 4 gusting 6 31.1
2020-Aug-02 11:15 132 3 gusting 6 32.2
2020-Aug-02 11:10 106 3 gusting 6 31.1
2020-Aug-02 11:05 097 3 gusting 4 31.1
2020-Aug-02 11:00 072 3 gusting 4 31.1
2020-Aug-02 08:05 114 5 gusting 10 28.3
2020-Aug-02 08:00 103 5 gusting 6 28.3
2020-Aug-02 07:55 122 5 gusting 6 27.8
2020-Aug-02 07:50 124 5 gusting 6 27.8
2020-Aug-02 07:45 105 5 gusting 6 27.2
2020-Aug-02 07:40 097 4 gusting 6 27.2
2020-Aug-02 07:35 088 4 gusting 6 27.2
2020-Aug-02 07:30 096 5 gusting 7 27.2
2020-Aug-02 07:25 098 5 gusting 7 26.1
2020-Aug-02 07:20 103 5 gusting 6 26.7
2020-Aug-02 07:15 102 6 gusting 9 26.1
2020-Aug-02 07:10 079 6 gusting 9 26.1
2020-Aug-02 07:05 074 6 gusting 9 26.1
2020-Aug-02 07:00 100 6 gusting 6 26.1
2020-Aug-02 06:55 121 6 gusting 9 26.1
2020-Aug-02 06:50 111 6 gusting 9 26.1
2020-Aug-02 06:45 092 5 gusting 7 26.1
2020-Aug-02 06:40 095 6 gusting 7 25.0
2020-Aug-02 06:35 088 6 gusting 7 25.0
2020-Aug-02 06:30 101 6 gusting 7 25.0
2020-Aug-02 06:25 093 6 gusting 8 25.0
2020-Aug-02 06:20 090 6 gusting 8 25.0
2020-Aug-02 06:15 094 5 gusting 6 26.1
2020-Aug-02 06:10 100 5 gusting 6 25.0
2020-Aug-02 06:05 103 5 gusting 6 25.0
2020-Aug-02 06:00 107 5 gusting 6 25.0
2020-Aug-02 05:55 111 5 gusting 6 25.0
2020-Aug-02 05:50 099 5 gusting 6 25.0
2020-Aug-02 05:45 101 5 gusting 6 25.0
2020-Aug-02 05:40 092 5 gusting 6 25.0
2020-Aug-02 05:35 096 5 gusting 6 25.0
2020-Aug-02 05:30 108 5 gusting 6 24.4
2020-Aug-02 05:25 101 6 gusting 7 24.4
2020-Aug-02 05:20 100 6 gusting 7 24.4
2020-Aug-02 05:15 100 5 gusting 7 24.4
2020-Aug-02 05:10 082 4 gusting 6 24.4
2020-Aug-02 05:05 085 5 gusting 7 23.9
2020-Aug-02 05:00 088 4 gusting 7 24.4
2020-Aug-02 04:55 097 3 gusting 7 24.4
2020-Aug-02 04:50 091 3 gusting 4 23.9
2020-Aug-02 04:45 059 2 gusting 4 23.9
2020-Aug-02 04:40 056 2 gusting 3 23.3
2020-Aug-02 04:35 034 1 gusting 2 22.8
2020-Aug-02 04:25 169 0 gusting 1 22.2
2020-Aug-02 04:20 023 0 gusting 2 21.1
2020-Aug-02 04:15 033 0 gusting 2 21.1
2020-Aug-02 04:10 159 0 gusting 1 22.2
2020-Aug-02 04:05 308 0 gusting 1 21.7
2020-Aug-02 03:55 038 0 gusting 1 20.0
2020-Aug-02 03:50 193 19.4
2020-Aug-02 03:45 267 0 gusting 1 19.4
2020-Aug-02 03:40 272 0 gusting 1 19.4
2020-Aug-02 03:35 261 18.9
2020-Aug-02 03:30 163 18.9
2020-Aug-02 03:25 168 18.9
2020-Aug-02 03:20 292 18.9
2020-Aug-02 03:15 314 18.9
2020-Aug-02 03:10 314 19.4
2020-Aug-02 03:05 314 19.4
2020-Aug-02 03:00 225 20.0
2020-Aug-02 02:40 326 20.6
2020-Aug-02 02:35 348 21.1
2020-Aug-02 02:30 027 0 gusting 1 21.1
2020-Aug-02 02:25 357 0 gusting 1 21.1
2020-Aug-02 02:20 300 0 gusting 2 21.1
2020-Aug-02 02:15 339 0 gusting 2 21.7
2020-Aug-02 02:10 327 0 gusting 2 21.7
2020-Aug-02 02:05 339 0 gusting 1 21.7
2020-Aug-02 02:00 349 0 gusting 2 22.2
2020-Aug-02 01:55 334 0 gusting 2 22.2
2020-Aug-02 01:45 348 0 gusting 3 22.8
2020-Aug-02 01:40 006 0 gusting 1 22.8
2020-Aug-02 01:35 330 0 gusting 1 22.8
2020-Aug-02 01:30 316 1 gusting 3 22.8
2020-Aug-02 01:25 321 1 gusting 3 22.8
2020-Aug-02 01:10 345 0 gusting 2 23.3
2020-Aug-02 01:05 340 0 gusting 2 23.3
2020-Aug-02 01:00 321 1 gusting 1 23.3